Tracking 33195 objects as of 8-Feb-2026
HD Live streaming from Space Station
objects crossing your sky now

OBJECT G

Track OBJECT G now!
10-day predictions


NORAD ID: 66999
Int'l Code: 2025-292G
Perigee: 544.8 km
Apogee: 568.0 km
Inclination: 97.6 °
Period: 95.6 minutes
Semi major axis: 6927 km
RCS: Unknown
Launch date: December 10, 2025
Source: People's Republic of China (PRC)
Launch site: Jiuquan Satellite Launch Center, China (JSC)

Note: This is a ROCKET BODY
Your satellite tracking list
Your tracking list is empty




NASA's NSSDC Master Catalog

Two Line Element Set (TLE):
1 66999U 25292G   26038.90764024  .00006490  00000-0  45128-3 0  9992
2 66999  97.6466 115.9768 0016708  86.6701 273.6437 15.05733598  8990
Source of the keplerian elements: AFSPC